Temperature
18 19 19 19 19 18 17 15 15 16 16 16 15 15 16 17 17 16 16 16 15 15 15 14 14 14 13 13 12 12 12 11 11 11 11 11 11 11 11 11 11 11 11 11
19 20 20 20 19 18 17 17 16 17 17 16 17 17 17 17 17 17 16 16 16 15 15 15 14 14 13 13 12 12 12 11 11 11 11 10 10 10 10 10 10 11 11 11
17 19 20 19 19 18 18 18 17 17 16 16 15 16 17 17 17 17 16 16 16 15 15 15 14 14 13 13 12 12 12 11 11 11 10 10 10 10 10 10 10 10 10 11
16 18 20 19 20 20 19 19 18 18 17 16 17 18 18 18 18 17 17 16 16 15 15 15 14 14 13 13 13 12 12 11 11 11 10 10 10 10 10 10 10 10 10 10
15 17 18 20 21 21 20 19 19 18 17 18 19 18 17 18 18 17 17 16 16 15 15 15 14 14 14 13 13 12 12 11 11 10 10 10 10 10 10 10 10 10 10 10
16 18 19 19 21 21 20 19 20 19 18 18 17 14 15 19 18 17 17 16 16 16 15 15 14 14 14 13 13 12 11 11 11 11 10 10 10 10 10 10 10 10 10 10
16 17 17 19 21 21 19 19 21 21 20 19 17 17 20 19 18 18 17 17 16 16 15 15 15 14 14 13 13 12 11 11 11 11 10 10 10 10 10 10 10 10 10 10
14 17 18 20 20 18 19 22 22 22 22 21 21 20 19 19 18 18 17 17 16 16 15 15 15 14 14 13 13 12 12 11 11 11 11 11 10 10 10 10 10 10 10 10
15 17 20 22 22 23 23 22 22 22 22 21 21 20 19 19 18 18 17 17 16 16 16 15 15 15 14 14 13 13 12 12 11 11 11 11 11 10 10 10 10 10 10 10
18 19 21 22 22 23 23 22 22 22 22 21 21 20 19 19 18 18 17 17 17 16 16 16 15 15 15 14 14 13 12 12 12 12 11 11 11 11 11 10 10 10 10 10
18 18 20 22 22 22 23 22 22 22 22 21 21 20 20 19 19 18 18 17 17 17 16 16 16 15 15 14 14 13 13 13 12 12 12 11 11 11 11 11 11 11 10 10
15 16 16 19 19 20 21 21 21 21 21 21 21 21 20 20 19 19 18 18 17 17 17 17 16 16 15 15 14 14 13 13 13 12 12 12 11 11 11 11 11 11 11 11
13 15 16 17 18 19 19 20 21 21 21 20 20 20 20 20 19 19 18 18 18 17 17 17 17 16 16 15 15 14 14 13 13 13 12 12 12 11 11 11 11 11 11 11
14 16 15 15 15 17 18 19 19 20 20 19 19 20 20 19 19 19 19 18 18 18 17 17 17 17 16 16 15 15 14 14 13 13 13 12 12 12 11 11 11 11 11 11
12 13 13 13 15 16 17 17 18 18 18 18 18 18 19 19 19 19 19 19 18 18 18 17 17 17 17 16 16 15 15 14 14 13 13 13 12 12 12 12 11 11 11 11
11 12 13 13 14 14 14 15 14 15 15 16 17 17 18 18 19 19 19 19 18 18 18 18 17 17 17 16 16 16 15 15 14 14 13 13 13 12 12 12 12 12 12 11
10 10 11 11 11 11 12 12 12 12 13 14 15 16 16 17 18 18 19 19 19 19 18 18 18 18 17 17 16 16 16 15 15 14 14 13 13 13 13 12 12 12 12 12
10 9 9 9 10 10 10 11 11 12 12 12 14 15 15 16 16 17 18 18 18 19 18 18 18 18 17 17 17 16 16 15 15 15 14 14 13 13 13 13 12 12 12 12
9 9 9 9 9 9 9 9 10 10 11 11 12 13 13 14 15 16 17 18 18 18 18 18 18 18 17 17 17 16 16 16 15 15 14 14 14 13 13 13 13 13 12 12
8 8 8 8 8 8 8 8 8 9 9 9 10 11 12 12 13 14 15 16 16 16 17 18 18 18 18 17 17 17 16 16 16 15 15 14 14 14 13 13 13 13 13 12
7 7 7 7 7 7 7 7 7 7 8 8 8 8 9 10 11 12 13 14 15 15 16 17 17 17 17 17 17 17 16 16 16 15 15 14 14 14 14 13 13 13 13 13
7 6 6 6 6 6 6 6 6 6 6 7 7 7 8 8 9 10 11 11 12 13 15 16 16 17 17 17 17 17 16 16 16 16 15 15 14 14 14 13 13 13 13 13
6 6 6 6 6 6 6 6 6 6 6 6 6 6 6 6 7 7 8 9 10 11 13 14 15 16 16 17 17 17 16 16 16 16 15 15 14 14 14 14 13 13 13 13
6 6 6 6 5 5 5 5 5 5 5 5 5 5 5 5 6 6 7 8 9 10 11 13 14 15 16 16 16 16 16 16 16 16 15 15 14 14 14 13 13 13 13 13
6 6 6 6 5 5 5 5 5 5 5 5 5 5 4 4 4 5 5 6 7 8 9 11 12 13 14 14 15 15 16 16 16 15 15 15 14 14 14 13 13 13 13 13
6 6 6 6 5 5 5 5 5 5 4 4 4 4 4 4 4 4 5 5 6 7 8 8 10 11 11 12 13 14 14 15 15 15 15 14 14 14 14 13 13 13 13 13
6 6 6 6 6 5 5 5 5 4 4 4 4 4 4 4 4 4 4 4 5 5 6 6 7 8 9 9 11 12 13 13 13 14 14 14 14 13 13 13 13 13 13 13
Wind_Speed
7 7 6 6 7 8 7 8 7 7 7 9 11 12 10 8 7 5 5 5 5 4 4 4 3 3 2 1 1 2 3 4 5 5 6 6 6 6 7 7 7 6 6 7
3 6 6 5 7 8 8 7 8 7 8 7 7 8 8 8 7 7 6 6 5 4 4 3 4 3 1 1 0 1 2 3 4 5 6 6 6 6 6 6 6 6 7 7
4 3 1 6 8 8 7 7 8 9 8 5 6 10 10 9 8 8 7 6 5 4 4 4 5 4 4 3 1 2 2 2 3 4 5 6 6 6 6 6 6 6 6 7
1 3 2 8 5 5 6 7 8 7 7 11 11 11 10 9 9 8 8 7 5 4 3 3 3 3 4 3 3 2 1 2 3 3 4 5 6 6 6 5 5 5 6 7
3 2 6 7 4 1 1 6 6 8 8 9 6 4 4 8 9 9 9 7 6 5 4 3 3 5 6 4 3 2 1 1 1 2 3 5 6 6 4 4 5 4 4 6
3 1 3 6 3 2 2 5 6 6 9 9 9 4 7 8 8 8 8 6 5 4 3 4 3 6 7 5 3 2 2 2 2 1 2 3 5 4 4 3 4 4 5 6
3 3 7 7 1 3 1 6 5 5 8 11 11 10 6 6 8 9 8 7 6 5 4 4 5 7 7 5 5 5 4 2 1 1 2 2 3 4 4 4 4 5 5 6
4 2 6 5 5 5 9 5 4 4 7 10 10 7 6 8 9 9 8 8 7 5 5 5 5 8 7 7 6 5 4 3 2 2 1 1 3 4 4 4 5 5 5 5
8 7 7 6 9 7 5 5 5 4 6 9 8 8 9 9 9 9 9 8 7 6 6 5 6 8 8 7 7 5 4 3 3 2 1 0 1 2 3 4 3 3 4 4
3 5 5 5 6 6 5 6 6 5 6 8 9 10 11 10 9 9 9 8 7 7 7 6 7 8 9 8 7 6 5 4 4 3 2 1 0 1 1 2 2 2 3 3
3 6 8 8 7 7 6 6 6 5 5 8 10 10 11 10 10 10 9 8 7 8 8 8 8 8 8 8 8 7 6 5 5 5 4 3 1 1 1 2 2 1 1 1
3 6 4 6 11 11 8 7 7 5 4 4 8 10 11 11 10 10 10 9 8 9 9 8 8 8 9 8 8 7 6 5 5 5 4 4 3 2 3 3 3 2 2 2
5 8 3 6 11 15 12 12 9 6 4 5 5 8 10 9 10 10 10 10 11 11 10 9 9 9 9 9 9 8 7 6 5 5 5 5 4 4 3 3 4 5 5 4
8 7 7 9 10 13 13 14 12 12 10 7 5 5 6 8 8 10 12 13 12 11 11 10 10 10 10 9 9 9 8 8 7 6 6 6 5 5 4 4 3 4 4 6
10 9 6 7 10 15 15 16 16 16 16 14 10 7 6 7 9 12 12 12 11 11 11 11 11 11 9 10 10 10 8 6 6 6 6 6 5 5 5 5 4 3 2 3
6 7 9 13 16 17 17 17 17 17 16 14 14 13 11 9 10 11 10 10 11 13 13 12 13 12 10 10 11 9 8 11 9 6 6 5 5 5 5 5 5 5 5 4
9 12 13 15 15 15 15 14 14 14 15 16 16 16 14 11 9 9 10 11 14 15 14 14 14 12 11 12 11 9 8 8 12 7 6 6 6 6 6 6 6 6 6 7
7 8 8 8 10 11 13 14 15 16 16 16 17 16 16 14 12 12 12 11 11 12 12 13 13 12 12 13 12 9 9 8 7 8 7 7 7 6 6 6 7 8 6 5
8 9 9 10 10 10 10 12 13 13 15 17 18 17 16 16 15 15 13 9 11 13 13 13 16 14 13 15 14 9 10 9 8 8 8 9 8 6 6 7 7 8 7 6
8 8 8 9 9 9 10 11 12 13 14 16 16 17 18 18 18 17 15 10 9 9 10 11 13 13 14 14 16 11 11 11 10 9 8 8 8 8 7 7 8 8 8 8
6 6 7 8 8 9 9 10 11 13 14 14 15 16 17 17 17 16 14 13 13 13 13 12 11 11 12 13 16 12 12 12 11 10 10 9 9 8 8 8 8 8 8 8
3 4 5 6 7 8 8 8 9 11 12 13 14 15 16 17 18 16 13 11 15 20 15 10 9 12 14 15 12 13 13 13 12 10 10 9 9 9 9 9 9 8 8 8
2 3 4 5 6 7 8 8 9 10 11 12 13 14 14 14 12 13 16 15 16 23 17 11 13 14 16 13 11 13 14 14 13 12 11 10 10 10 10 10 9 9 8 8
3 4 4 5 5 6 8 9 9 8 9 10 9 10 11 12 12 11 11 19 24 25 16 17 19 16 12 10 10 11 12 12 12 11 11 10 10 9 9 9 9 8 8 9
4 4 4 5 5 5 6 7 8 8 8 8 9 9 8 7 9 12 14 16 23 23 16 20 23 19 10 7 7 10 10 11 11 11 11 10 9 10 9 9 9 9 8 8
5 5 5 5 5 5 5 5 5 6 6 8 9 9 8 8 9 10 11 14 17 21 17 15 16 16 11 9 7 7 7 9 10 10 10 10 11 10 9 10 11 9 9 9
5 5 4 5 5 5 5 5 5 6 6 6 8 9 9 9 9 10 11 12 13 13 14 14 14 14 13 12 10 7 5 5 6 7 8 9 9 9 10 11 10 9 8 8
Wind_Direction
222 214 184 197 201 195 188 194 205 239 238 238 212 206 212 218 221 219 223 223 224 238 253 261 255 259 268 269 312 11 20 16 4 358 0 2 2 360 360 3 9 4 8 6
288 239 209 237 235 215 218 216 223 240 261 244 196 189 205 211 208 212 214 215 217 232 240 243 237 231 212 192 238 57 33 11 2 5 3 360 355 354 357 358 358 4 7 4
309 323 94 279 248 214 217 212 197 219 236 184 176 198 205 205 205 206 205 206 208 224 241 241 227 209 185 181 146 87 41 8 6 8 4 352 348 354 355 354 359 2 1 4
9 36 250 260 265 200 213 240 217 218 211 184 196 204 206 197 193 199 196 198 208 221 239 239 212 182 159 139 122 108 73 9 359 5 359 348 350 350 346 347 353 356 360 2
83 340 292 295 285 181 225 286 238 216 213 202 190 161 249 220 194 190 193 197 205 208 205 198 187 165 145 137 130 118 115 318 319 348 356 352 349 342 341 350 356 357 359 6
100 56 272 267 284 109 83 294 278 203 199 186 145 173 249 225 194 186 185 187 191 186 182 186 182 153 147 156 159 184 213 229 252 294 348 349 343 338 341 351 353 0 15 11
165 235 268 259 217 75 62 260 273 208 193 177 185 206 221 189 181 182 184 190 182 173 186 202 175 153 156 174 198 216 210 205 228 264 288 335 349 349 357 10 15 14 17 12
153 197 272 232 153 186 223 242 257 225 199 193 209 213 194 180 180 182 188 194 185 183 205 210 177 159 169 197 215 215 203 202 222 256 292 25 21 11 15 25 31 18 15 12
183 214 243 222 211 231 201 223 246 227 220 195 192 190 187 188 187 191 194 199 196 193 208 216 192 175 183 209 210 206 203 212 219 224 258 30 49 26 20 25 31 16 18 15
228 273 281 273 263 277 248 247 257 238 213 186 191 193 192 194 196 198 201 201 201 196 207 219 210 199 200 202 198 196 204 213 211 207 218 244 5 40 46 25 20 11 10 5
293 311 338 2 351 317 296 292 288 266 219 200 194 197 197 200 203 203 204 203 198 199 208 218 212 210 210 201 191 195 208 213 209 207 204 207 215 242 240 249 241 256 290 319
274 306 301 327 349 355 349 329 312 294 272 232 202 204 202 206 208 205 206 202 201 206 211 217 209 212 212 204 192 189 201 209 209 208 207 204 206 257 288 260 278 278 267 258
300 298 321 341 2 5 2 351 340 330 299 278 248 219 207 210 212 209 208 204 205 209 211 211 206 211 213 204 196 193 198 203 205 206 205 204 203 212 248 281 279 283 283 282
350 9 26 8 353 355 2 3 7 8 356 335 302 264 230 221 218 212 213 213 211 210 211 210 208 215 214 201 198 201 201 203 197 203 205 205 206 209 210 216 247 274 272 263
8 23 19 351 5 13 12 12 14 8 358 351 340 318 279 245 231 226 223 216 209 210 214 211 213 221 211 197 199 202 199 201 200 203 206 208 208 205 206 210 217 231 250 271
357 21 26 25 21 15 13 13 8 359 353 347 343 334 313 278 255 242 229 211 205 214 217 213 217 220 205 196 199 202 204 206 195 198 205 208 207 206 208 211 213 213 219 223
33 27 20 19 14 11 9 6 1 354 351 349 343 336 331 320 299 276 251 228 219 219 215 212 217 215 201 197 196 201 201 205 202 196 203 207 208 211 212 209 211 215 222 216
39 34 25 15 9 5 3 3 1 358 355 348 344 345 345 338 322 303 281 253 236 232 225 219 217 210 203 200 199 199 198 200 198 202 206 211 214 213 210 210 213 217 224 222
25 22 16 11 7 3 360 359 356 353 353 353 352 349 344 340 332 322 313 280 247 242 239 227 219 211 208 206 199 197 198 201 204 207 208 214 216 215 212 211 213 213 209 203
20 15 11 5 2 1 357 352 351 353 354 353 353 353 349 345 341 336 329 309 280 275 269 241 222 216 213 210 201 200 201 202 205 206 207 208 212 217 215 214 213 212 208 206
12 7 4 359 354 352 350 346 349 350 350 352 353 350 345 342 342 343 339 329 322 317 303 269 240 225 216 211 203 202 202 204 205 206 207 209 213 217 218 217 215 213 211 211
348 346 344 344 345 340 337 338 343 344 346 348 349 349 346 344 343 342 337 332 328 328 320 292 267 242 225 213 206 203 205 206 207 206 206 208 210 215 218 218 217 215 212 211
290 303 317 324 327 323 328 337 341 342 342 341 343 344 342 337 337 340 336 333 333 333 330 312 301 275 240 219 212 208 208 208 209 208 208 209 210 212 215 217 217 214 210 211
282 294 301 308 324 332 329 325 328 330 329 328 330 334 335 335 334 333 326 329 337 336 333 325 319 308 266 233 219 213 212 211 211 211 210 208 208 209 211 211 212 212 212 211
265 275 287 305 308 299 294 306 318 322 327 327 324 325 327 324 324 327 329 332 337 342 339 337 336 327 310 278 241 226 219 215 212 209 208 207 207 208 209 209 210 211 211 212
255 259 262 261 259 263 273 288 300 307 314 318 321 321 322 322 321 326 331 334 337 341 344 341 341 339 331 321 296 261 239 227 219 214 211 209 209 208 210 211 211 210 209 209
264 260 266 275 272 260 256 261 271 283 288 294 304 309 313 317 321 327 330 334 337 339 340 342 343 343 341 335 328 314 287 258 236 222 216 213 211 211 212 210 209 206 203 202
Height
1551 1547 1547 1549 1550 1552 1557 1560 1565 1558 1552 1546 1543 1543 1544 1544 1544 1544 1544 1543 1541 1540 1538 1536 1534 1532 1529 1527 1524 1521 1517 1514 1510 1507 1503 1500 1496 1493 1490 1487 1484 1482 1480 1478
1549 1545 1545 1547 1546 1548 1550 1550 1551 1548 1546 1536 1537 1540 1541 1542 1542 1542 1541 1541 1540 1538 1537 1535 1533 1531 1529 1527 1524 1521 1518 1514 1511 1508 1505 1501 1498 1494 1491 1488 1486 1483 1481 1479
1559 1549 1549 1554 1543 1543 1543 1540 1542 1545 1541 1535 1537 1538 1538 1539 1539 1539 1539 1539 1538 1537 1536 1534 1532 1531 1529 1527 1524 1522 1518 1515 1512 1509 1506 1502 1499 1496 1493 1490 1487 1484 1482 1480
1561 1557 1561 1547 1533 1532 1535 1533 1533 1532 1531 1531 1532 1533 1534 1535 1536 1537 1537 1537 1536 1535 1534 1533 1532 1530 1528 1527 1524 1522 1519 1516 1513 1510 1507 1504 1501 1497 1494 1491 1489 1486 1483 1481
1566 1564 1558 1541 1532 1531 1534 1534 1528 1528 1528 1529 1531 1533 1533 1533 1533 1534 1535 1535 1535 1534 1533 1532 1531 1529 1528 1526 1524 1522 1519 1517 1514 1511 1508 1505 1502 1499 1496 1493 1490 1488 1485 1483
1564 1561 1560 1544 1531 1530 1534 1536 1525 1524 1525 1527 1530 1537 1531 1529 1531 1532 1533 1533 1533 1533 1532 1531 1530 1529 1528 1526 1524 1522 1519 1517 1515 1512 1509 1506 1503 1500 1498 1495 1492 1490 1487 1484
1562 1563 1554 1535 1530 1532 1544 1539 1524 1523 1522 1524 1525 1526 1526 1527 1528 1530 1531 1531 1531 1531 1531 1530 1529 1528 1527 1525 1524 1522 1520 1518 1516 1513 1510 1508 1505 1502 1499 1497 1494 1492 1489 1487
1564 1562 1554 1529 1530 1533 1531 1523 1522 1521 1521 1521 1521 1522 1524 1525 1526 1527 1529 1529 1529 1529 1529 1529 1528 1527 1526 1525 1523 1521 1520 1518 1516 1514 1511 1509 1506 1503 1501 1498 1496 1494 1492 1489
1546 1544 1529 1525 1524 1524 1523 1522 1521 1520 1520 1519 1519 1520 1521 1522 1524 1525 1526 1527 1527 1527 1527 1527 1526 1526 1524 1524 1522 1521 1520 1518 1516 1514 1512 1510 1507 1505 1502 1500 1498 1495 1493 1491
1534 1529 1525 1524 1523 1522 1522 1521 1520 1519 1518 1518 1517 1518 1519 1520 1521 1522 1523 1524 1525 1525 1525 1525 1524 1524 1523 1522 1521 1520 1519 1518 1516 1515 1513 1511 1509 1506 1504 1502 1499 1497 1495 1493
1532 1528 1524 1523 1523 1522 1521 1520 1519 1517 1517 1516 1516 1516 1517 1517 1518 1519 1520 1521 1522 1522 1522 1522 1522 1521 1521 1520 1519 1519 1518 1517 1515 1514 1513 1511 1509 1507 1505 1503 1501 1499 1497 1495
1537 1532 1531 1529 1526 1522 1520 1518 1517 1516 1515 1515 1514 1514 1514 1514 1515 1516 1517 1518 1518 1519 1519 1519 1519 1519 1519 1518 1518 1517 1516 1515 1514 1513 1512 1511 1510 1508 1506 1504 1502 1500 1499 1497
1536 1532 1531 1529 1525 1522 1520 1518 1516 1515 1514 1513 1512 1512 1512 1512 1512 1513 1513 1514 1514 1515 1515 1516 1516 1516 1516 1516 1515 1515 1514 1513 1512 1512 1511 1510 1509 1508 1506 1505 1503 1502 1500 1499
1534 1530 1528 1527 1525 1522 1519 1517 1515 1513 1512 1511 1510 1509 1509 1508 1508 1508 1509 1509 1510 1511 1511 1512 1512 1512 1512 1512 1512 1512 1511 1511 1510 1510 1509 1508 1508 1507 1506 1505 1504 1502 1501 1500
1534 1532 1531 1529 1525 1521 1518 1516 1513 1511 1510 1508 1507 1506 1505 1504 1504 1503 1504 1504 1505 1505 1506 1506 1507 1507 1508 1508 1508 1508 1508 1508 1507 1507 1507 1506 1506 1505 1504 1504 1503 1502 1501 1500
1535 1532 1529 1526 1523 1521 1518 1515 1513 1511 1509 1507 1505 1503 1501 1500 1498 1498 1498 1499 1499 1498 1499 1500 1501 1502 1503 1503 1503 1504 1504 1504 1504 1503 1503 1503 1503 1503 1502 1502 1501 1501 1500 1500
1532 1529 1527 1525 1524 1522 1521 1518 1516 1513 1509 1506 1503 1500 1497 1495 1493 1491 1491 1492 1491 1491 1492 1493 1494 1496 1497 1497 1498 1498 1499 1499 1499 1499 1499 1499 1499 1499 1499 1499 1499 1498 1498 1498
1534 1533 1531 1529 1527 1524 1521 1519 1516 1512 1508 1505 1501 1497 1494 1491 1488 1486 1484 1484 1483 1483 1484 1485 1487 1488 1489 1490 1491 1492 1493 1493 1494 1494 1494 1494 1494 1495 1495 1495 1495 1495 1495 1496
1534 1533 1531 1529 1527 1525 1522 1518 1515 1511 1507 1503 1499 1495 1492 1488 1484 1481 1478 1476 1475 1475 1475 1477 1478 1480 1481 1482 1484 1485 1486 1486 1487 1488 1488 1489 1489 1490 1490 1490 1491 1491 1491 1492
1533 1532 1530 1528 1526 1524 1521 1517 1514 1510 1506 1501 1497 1492 1488 1484 1480 1476 1473 1470 1469 1468 1468 1469 1469 1470 1471 1473 1475 1476 1477 1478 1479 1480 1481 1482 1483 1483 1484 1485 1485 1486 1487 1487
1532 1530 1529 1527 1524 1522 1519 1516 1512 1508 1504 1500 1495 1491 1486 1482 1478 1473 1468 1464 1462 1461 1459 1459 1459 1460 1462 1464 1465 1466 1468 1469 1471 1472 1473 1474 1475 1476 1478 1478 1479 1480 1481 1482
1530 1528 1526 1524 1522 1519 1517 1513 1510 1506 1502 1497 1493 1489 1484 1478 1474 1469 1467 1463 1458 1455 1452 1450 1450 1451 1452 1454 1455 1456 1458 1460 1461 1463 1464 1466 1467 1468 1470 1471 1472 1473 1474 1475
1527 1525 1524 1521 1519 1516 1514 1511 1507 1503 1499 1495 1491 1487 1482 1478 1473 1468 1462 1457 1453 1449 1446 1443 1442 1441 1442 1444 1444 1446 1448 1450 1452 1453 1455 1457 1458 1460 1462 1463 1465 1466 1467 1469
1524 1522 1521 1519 1516 1514 1511 1507 1504 1501 1498 1494 1490 1486 1481 1475 1470 1466 1462 1456 1451 1446 1441 1437 1434 1433 1433 1433 1434 1436 1438 1440 1442 1444 1446 1448 1449 1451 1453 1455 1456 1458 1460 1461
1520 1519 1518 1516 1513 1511 1508 1505 1502 1498 1495 1491 1487 1483 1479 1475 1470 1464 1458 1453 1448 1442 1436 1432 1429 1426 1425 1424 1425 1427 1428 1430 1432 1434 1436 1438 1440 1442 1444 1446 1448 1450 1451 1453
1517 1516 1514 1513 1511 1508 1506 1503 1500 1496 1492 1488 1484 1481 1476 1472 1467 1462 1456 1451 1445 1440 1434 1429 1425 1421 1419 1417 1417 1418 1419 1421 1423 1425 1427 1429 1431 1433 1435 1437 1439 1441 1443 1445
1513 1512 1511 1509 1507 1505 1503 1500 1497 1494 1490 1486 1482 1478 1474 1469 1465 1460 1455 1449 1443 1438 1432 1427 1423 1419 1415 1413 1411 1410 1411 1412 1414 1416 1418 1420 1422 1424 1426 1428 1430 1433 1435 1437